Orbital Elements at Epoch 2459000.5 (2020-May-31.0) TDB
Reference: JPL 18 (heliocentric ecliptic J2000)
Element | Value | Uncertainty (1-sigma) | Units |
e | .170536408190851 | 4.1646e-08 | |
a | 2.596273501629621 | 1.2907e-08 | au |
q | 2.153514343980622 | 1.0729e-07 | au |
i | 11.65261206318034 | 4.7115e-06 | deg |
node | 187.573481230455 | 2.0131e-05 | deg |
peri | 141.9823854315018 | 2.4929e-05 | deg |
M | 206.3633712183863 | 1.8895e-05 | deg |
tp | 2459652.603237406299 (2022-Mar-14.10323741) | 8.3531e-05 | TDB |
period | 1528.002581988195 4.18 | 1.1395e-05 3.12e-08 | d yr |
n | .2356016961251321 | 1.7569e-09 | deg/d |
Q | 3.039032659278621 | 1.5108e-08 | au |
|
| | Orbit Determination Parameters
Additional Information
|